This is the latest recevied weather packets stored in our database for station/object KY4GW. If no packets are shown the sender has not sent any weather packets the latest 10 day(s).
| Time | Temp. | Humidity | Pressure | Rain* | Wind** | Luminosity | Snow |
|---|---|---|---|---|---|---|---|
| 1778090191 | 15° C | 66% | 1015.5 hPa | 0 mm | - | 880 W/m² | - |
| 1778089887 | 14.44° C | 68% | 1015.5 hPa | 0 mm | - | 347 W/m² | - |
| 1778089586 | 14.44° C | 67% | 1015.5 hPa | 0 mm | - | 1018 W/m² | - |
| 1778089282 | 14.44° C | 67% | 1015.1 hPa | 0 mm | - | 670 W/m² | - |
| 1778088980 | 14.44° C | 69% | 1015.1 hPa | 0 mm | - | 285 W/m² | - |
| 1778088676 | 15° C | 70% | 1015.1 hPa | 0 mm | - | 1042 W/m² | - |
| 1778088374 | 14.44° C | 72% | 1015.5 hPa | 0 mm | - | 929 W/m² | - |
| 1778088070 | 14.44° C | 69% | 1015.5 hPa | 0 mm | - | 269 W/m² | - |
| 1778087768 | 13.89° C | 70% | 1015.5 hPa | 0 mm | - | 314 W/m² | - |
| 1778087465 | 14.44° C | 69% | 1015.8 hPa | 0 mm | - | 263 W/m² | - |
| 1778087162 | 13.89° C | 70% | 1015.8 hPa | 0 mm | - | 804 W/m² | - |
| 1778086860 | 14.44° C | 74% | 1015.8 hPa | 0 mm | - | 344 W/m² | - |
| 1778086558 | 13.89° C | 70% | 1015.8 hPa | 0 mm | - | 316 W/m² | - |
| 1778086254 | 13.89° C | 67% | 1015.8 hPa | 0 mm | - | 1115 W/m² | - |
| 1778085951 | 13.89° C | 70% | 1015.8 hPa | 0 mm | - | 364 W/m² | - |
| 1778085648 | 13.89° C | 70% | 1015.8 hPa | 0 mm | - | 460 W/m² | - |
| 1778085344 | 13.89° C | 70% | 1015.8 hPa | 0 mm | - | 907 W/m² | - |
| 1778085040 | 13.89° C | 70% | 1015.8 hPa | 0 mm | - | 315 W/m² | - |
| 1778084736 | 13.89° C | 71% | 1015.8 hPa | 0 mm | - | 716 W/m² | - |
| 1778084434 | 13.89° C | 70% | 1015.8 hPa | 0 mm | - | 500 W/m² | - |
| 1778084131 | 13.33° C | 70% | 1015.5 hPa | 0 mm | - | 349 W/m² | - |
| 1778083828 | 13.33° C | 72% | 1015.5 hPa | 0 mm | - | 702 W/m² | - |
| 1778083526 | 13.33° C | 72% | 1015.5 hPa | 0 mm | - | 274 W/m² | - |
| 1778083223 | 13.33° C | 71% | 1015.5 hPa | 0 mm | - | 847 W/m² | - |
| 1778082921 | 12.78° C | 72% | 1015.5 hPa | 0 mm | - | 261 W/m² | - |
* Rain latest hour (hover to see other rain measurements)
** Current wind speed in m/s (hover to see current wind gust speed)